Location: Beadle
(51.4667°N, 109.0000°W)
Time: 02:41:55
(UTC+00:00)

N. Korean satellite - Visible Passes

Search period start: 19 January 2022 00:00
Search period end: 29 January 2022 00:00
Orbit: 446 x 492 km, 97.3° (Epoch: 18 January)

Date Brightness Start Highest point End Pass type
(mag) Time Alt. Az. Time Alt. Az. Time Alt. Az.
19 Jan 7.6 12:20:31 10° NNE 12:23:34 45° ENE 12:23:34 45° ENE visible
19 Jan 8.1 13:54:26 10° NNW 13:56:53 18° WNW 13:57:38 17° WNW visible
20 Jan 9.6 00:33:27 10° SW 00:35:56 18° W 00:38:26 10° NW visible
20 Jan 8.9 11:51:47 10° NE 11:54:29 23° E 11:54:29 23° E visible
20 Jan 7.2 13:24:43 10° N 13:27:59 32° WNW 13:28:33 30° W visible
21 Jan 9.8 11:23:50 10° ENE 11:25:24 12° E 11:25:24 12° E visible
21 Jan 6.4 12:55:21 10° N 12:58:58 67° WNW 12:59:28 58° WSW visible
22 Jan 7.2 12:26:13 10° NNE 12:29:49 57° E 12:30:22 50° SE visible
22 Jan 8.2 14:00:20 10° NNW 14:02:34 16° WNW 14:04:25 11° W visible
23 Jan 9.7 00:39:25 10° SW 00:41:41 16° W 00:43:57 10° NW visible
23 Jan 8.6 11:57:21 10° NE 12:00:31 27° E 12:01:15 25° ESE visible
23 Jan 7.4 13:30:29 10° N 13:33:39 28° WNW 13:35:19 20° WSW visible
24 Jan 9.7 11:29:05 10° NE 11:31:05 14° E 11:32:09 13° ESE visible
24 Jan 6.6 13:01:00 10° N 13:04:35 57° WNW 13:06:14 29° SW visible
25 Jan 6.9 12:31:45 10° NNE 12:35:24 66° ESE 12:37:07 29° S visible
25 Jan 8.3 14:06:07 10° NNW 14:08:04 14° WNW 14:10:01 10° W visible
26 Jan 9.8 00:45:16 10° WSW 00:47:15 14° W 00:49:15 10° NW visible
26 Jan 8.4 12:02:46 10° NNE 12:06:04 31° E 12:08:00 19° SE visible
26 Jan 7.6 13:36:04 10° N 13:39:07 25° WNW 13:42:04 10° WSW visible
27 Jan 9.5 11:34:16 10° NE 11:36:36 16° E 11:38:54 10° SE visible
27 Jan 6.7 13:06:28 10° N 13:10:01 50° WNW 13:12:58 14° SW visible
28 Jan 6.6 12:37:08 10° NNE 12:40:47 77° E 12:43:53 14° S visible
28 Jan 8.5 14:11:47 10° NNW 14:13:24 13° WNW 14:15:01 10° W visible
